Weather History for KRIL - September, 2012

Change the Weather History Date:

Monday, September 3, 2012

  Actual Average Record
Temperature  
Mean Temperature 69 °F 66 °F  
Max Temperature 87 °F 83 °F 96 °F (1948)
Min Temperature 50 °F 49 °F 29 °F (1959)
Degree Days  
Heating Degree Days 0 1  
Month to date heating degree days 0 3  
Since 1 July heating degree days 2 10  
Cooling Degree Days 4 2  
Month to date cooling degree days 12 6  
Year to date cooling degree days 794 522  
Growing Degree Days 17 (Base 50)    
Moisture  
Dew Point 42 °F    
Average Humidity 47    
Maximum Humidity 74    
Minimum Humidity 19    
Precipitation  
Precipitation 0.00 in 0.05 in 1.12 in (2005)
Month to date precipitation T 0.14  
Year to date precipitation 5.67 9.11  
Sea Level Pressure  
Sea Level Pressure 30.04 in    
Wind  
Wind Speed 5 mph (ENE)    
Max Wind Speed 32 mph    
Max Gust Speed 44 mph    
Visibility 10 miles    
Events      
T = Trace of Precipitation, MM = Missing Value Source: NWS Daily Summary

Daily Weather History Graph

Daily Weather History Graph

Search for Another Location

Airport or City:

Trip Planner

Search our weather history database for the weather conditions in past years. The results will help you decide how hot, cold, wet, or windy it might be!

Date:

Astronomy

Sep. 03, 2012 Rise Set
Actual Time 6:41 AM MDT 7:37 PM MDT
Civil Twilight 6:14 AM MDT 8:05 PM MDT
Nautical Twilight 5:41 AM MDT 8:37 PM MDT
Astronomical Twilight 5:07 AM MDT 9:11 PM MDT
Moon 8:59 PM MDT (9/3) 9:51 AM MDT (9/3)
Length of Visible Light 13h 51m
Length of Day
12h 56m
Waning Gibbous, 90% of the Moon is Illuminated
Sep 3
Waning Gibbous
Sep 8
Last Quarter
Sep 15
New
Sep 22
First Quarter
Sep 29
Full

Hourly Weather History & Observations

Time (MDT) Temp. Dew Point Humidity Pressure Visibility Wind Dir Wind Speed Gust Speed Precip Events Conditions
12:53 AM 60.1 °F 45.0 °F 57% 30.01 in 10.0 mi Calm Calm - N/A   Clear
1:53 AM 57.9 °F 45.0 °F 62% 30.03 in 10.0 mi East 3.5 mph - N/A   Clear
3:53 AM 55.9 °F 45.0 °F 67% 30.04 in 10.0 mi Calm Calm - N/A   Clear
4:53 AM 53.1 °F 44.1 °F 71% 30.06 in 10.0 mi Calm Calm - N/A   Clear
5:53 AM 53.1 °F 44.1 °F 71% 30.08 in 10.0 mi Calm Calm - N/A   Clear
6:53 AM 50.0 °F 43.0 °F 77% 30.10 in 10.0 mi ESE 3.5 mph - N/A   Clear
7:53 AM 55.9 °F 45.0 °F 67% 30.10 in 10.0 mi Calm Calm - N/A   Clear
8:53 AM 62.1 °F 46.9 °F 58% 30.10 in 10.0 mi Calm Calm - N/A   Clear
9:53 AM 66.9 °F 46.9 °F 49% 30.09 in 10.0 mi NW 3.5 mph - N/A   Clear
10:53 AM 71.1 °F 46.0 °F 41% 30.07 in 10.0 mi Variable 3.5 mph - N/A   Partly Cloudy
11:53 AM 79.0 °F 45.0 °F 30% 30.04 in 10.0 mi NE 3.5 mph - N/A   Clear
12:53 PM 81.0 °F 46.9 °F 30% 30.00 in 10.0 mi Variable 3.5 mph - N/A   Clear
1:53 PM 84.9 °F 45.0 °F 25% 29.99 in 10.0 mi SSE 9.2 mph 34.5 mph N/A   Partly Cloudy
2:18 PM 78.8 °F 42.8 °F 28% 30.21 in 9.0 mi NW 32.2 mph 43.7 mph N/A   Clear
2:53 PM 78.1 °F 42.1 °F 28% 30.02 in 10.0 mi NNW 17.3 mph 36.8 mph N/A   Partly Cloudy
3:53 PM 82.9 °F 41.0 °F 23% 29.98 in 10.0 mi NE 8.1 mph - N/A   Clear
4:53 PM 84.0 °F 39.0 °F 20% 29.97 in 10.0 mi SE 9.2 mph - N/A   Clear
5:53 PM 84.0 °F 37.9 °F 19% 29.96 in 10.0 mi NNW 4.6 mph - N/A   Clear
6:53 PM 82.0 °F 37.9 °F 21% 29.97 in 10.0 mi NNW 4.6 mph - N/A   Clear
7:53 PM 75.0 °F 37.9 °F 26% 29.98 in 10.0 mi Calm Calm - N/A   Clear
8:53 PM 66.9 °F 37.0 °F 33% 30.01 in 10.0 mi SE 9.2 mph - N/A   Clear
9:53 PM 64.0 °F 34.0 °F 33% 30.02 in 10.0 mi SE 8.1 mph - N/A   Clear
10:53 PM 63.0 °F 30.0 °F 29% 30.03 in 10.0 mi SE 4.6 mph - N/A   Clear
11:53 PM 63.0 °F 28.9 °F 28% 30.01 in 10.0 mi East 8.1 mph - N/A   Clear